Weather History for Tiree, United Kingdom

Change the Weather History Date:

Tuesday, March 5, 2013

  Actual Average Record
Temperature  
Mean Temperature 40 °F -  
Max Temperature 43 °F 48 °F 50 °F (2008)
Min Temperature 35 °F 38 °F 33 °F (1998)
Degree Days  
Heating Degree Days 26    
Moisture  
Dew Point 38 °F    
Average Humidity 86    
Maximum Humidity 93    
Minimum Humidity 70    
Precipitation  
Precipitation 0.00 in 0.12 in - ()
Sea Level Pressure  
Sea Level Pressure 29.66 in    
Wind  
Wind Speed 7 mph ()    
Max Wind Speed 10 mph    
Max Gust Speed -    
Visibility 4.2 miles    
Events Rain    
Averages and records for this station are not official NWS values.
T = Trace of Precipitation, MM = Missing Value Source: Averaged Metar Reports

Daily Weather History Graph

Daily Weather History Graph

Search for Another Location

Airport:

Trip Planner

Search our weather history database for the weather conditions in past years. The results will help you decide how hot, cold, wet, or windy it might be!

Date:

Astronomy

Mar. 05, 2013 Rise Set
Actual Time 7:09 AM GMT 6:09 PM GMT
Civil Twilight 6:31 AM GMT 6:47 PM GMT
Nautical Twilight 5:48 AM GMT 7:31 PM GMT
Astronomical Twilight 5:03 AM GMT 8:15 PM GMT
Moon 2:59 AM GMT (3/5) 10:42 AM GMT (3/5)
Length of Visible Light 12h 15m
Length of Day
11h 00m
Last Quarter, 43% of the Moon is Illuminated
Mar 5
Last Quarter
Mar 11
New
Mar 19
First Quarter
Mar 27
Full
Apr 3
Last Quarter

Hourly Weather History & Observations

Time (GMT) Temp. Windchill Dew Point Humidity Pressure Visibility Wind Dir Wind Speed Gust Speed Precip Events Conditions
12:20 AM 42.8 °F 37.5 °F 37.4 °F 81% 29.71 in 4.3 mi SSW 9.2 mph - N/A   Mostly Cloudy
12:50 AM 42.8 °F 37.0 °F 37.4 °F 81% 29.68 in 4.3 mi SSW 10.4 mph - N/A   Overcast
1:20 AM 42.8 °F 38.0 °F 37.4 °F 81% 29.68 in 4.3 mi SSW 8.1 mph - N/A   Mostly Cloudy
1:50 AM 42.8 °F 37.0 °F 37.4 °F 81% 29.68 in 4.3 mi SSW 10.4 mph - N/A   Overcast
2:20 AM 42.8 °F 37.5 °F 37.4 °F 81% 29.68 in 4.3 mi SSW 9.2 mph - N/A   Overcast
2:50 AM 42 °F - 38 °F 82% 29.68 in 4 mi SW 6.9 mph - -   Light Haze
2:50 AM 42.8 °F 38.6 °F 39.2 °F 87% 29.68 in 3.7 mi SW 6.9 mph - N/A   Overcast
3:20 AM 42.8 °F 39.3 °F 39.2 °F 87% 29.65 in 3.1 mi SSW 5.8 mph - N/A   Haze
3:50 AM 42.8 °F 38.0 °F 39.2 °F 87% 29.65 in 3.7 mi South 8.1 mph - N/A   Mostly Cloudy
4:20 AM 41.0 °F 37.1 °F 39.2 °F 93% 29.65 in - SW 5.8 mph - N/A   Haze
4:50 AM 41.0 °F 38.0 °F 39.2 °F 93% 29.65 in - South 4.6 mph - N/A   Haze
5:20 AM 41.0 °F 39.0 °F 39.2 °F 93% 29.65 in 3.1 mi SSE 3.5 mph - N/A   Haze
5:50 AM 42 °F - 40 °F 90% 29.68 in 4 mi SSE 4.6 mph - -   Light Haze
5:50 AM 42.8 °F 40.1 °F 41.0 °F 93% 29.65 in 3.7 mi SSE 4.6 mph - N/A   Mostly Cloudy
6:20 AM 42.8 °F 41.1 °F 39.2 °F 87% 29.65 in 3.7 mi Variable 3.5 mph - N/A   Mostly Cloudy
6:50 AM 41.0 °F 39.0 °F 39.2 °F 93% 29.65 in 3.7 mi SSW 3.5 mph - N/A   Mostly Cloudy
7:20 AM 42.8 °F 39.3 °F 39.2 °F 87% 29.65 in 3.7 mi SSW 5.8 mph - N/A   Mostly Cloudy
7:50 AM 42.8 °F 39.3 °F 39.2 °F 87% 29.65 in 3.1 mi SSW 5.8 mph - N/A   Haze
8:20 AM 42.8 °F 39.3 °F 39.2 °F 87% 29.65 in 3.1 mi SSW 5.8 mph - N/A   Haze
8:50 AM 42 °F - 40 °F 88% 29.68 in 3 mi SW 5.8 mph - -   Light Haze
8:50 AM 42.8 °F 39.3 °F 39.2 °F 87% 29.68 in 4.3 mi SW 5.8 mph - N/A   Overcast
9:20 AM 42.8 °F 40.1 °F 41.0 °F 93% 29.65 in 4.3 mi SSW 4.6 mph - N/A   Overcast
9:50 AM 42.8 °F 40.1 °F 39.2 °F 87% 29.65 in 4.3 mi SW 4.6 mph - N/A   Mostly Cloudy
10:20 AM 42.8 °F 39.3 °F 39.2 °F 87% 29.65 in 4.3 mi South 5.8 mph - N/A   Mostly Cloudy
10:50 AM 42.8 °F 39.3 °F 39.2 °F 87% 29.65 in 5.6 mi South 5.8 mph - N/A   Mostly Cloudy
11:20 AM 42.8 °F 38.0 °F 39.2 °F 87% 29.68 in 5.6 mi South 8.1 mph - N/A   Mostly Cloudy
11:50 AM 43 °F - 39 °F 79% 29.69 in 4 mi South 10.4 mph - - Rain Rain
11:50 AM 42.8 °F 37.0 °F 39.2 °F 87% 29.68 in 5.6 mi South 10.4 mph - N/A   Mostly Cloudy
12:20 PM 42.8 °F 37.0 °F 39.2 °F 87% 29.68 in 5.6 mi South 10.4 mph - N/A   Mostly Cloudy
12:50 PM 42.8 °F 38.0 °F 37.4 °F 81% 29.68 in 5.6 mi South 8.1 mph - N/A   Mostly Cloudy
1:20 PM 42.8 °F 38.6 °F 37.4 °F 81% 29.68 in 5.6 mi South 6.9 mph - N/A   Mostly Cloudy
1:50 PM 44.6 °F 40.7 °F 37.4 °F 76% 29.68 in 5.6 mi South 6.9 mph - N/A   Mostly Cloudy
2:20 PM 44.6 °F 41.4 °F 37.4 °F 76% 29.65 in 5.6 mi South 5.8 mph - N/A   Mostly Cloudy
2:50 PM 44 °F - 37 °F 70% 29.67 in 5 mi SSE 5.8 mph - -   Light Haze
2:50 PM 44.6 °F 41.4 °F 37.4 °F 76% 29.65 in 5.0 mi SSE 5.8 mph - N/A   Mostly Cloudy
3:20 PM 44.6 °F 41.4 °F 37.4 °F 76% 29.65 in 5.0 mi SE 5.8 mph - N/A   Mostly Cloudy
3:50 PM 44.6 °F 42.2 °F 37.4 °F 76% 29.65 in 4.3 mi ESE 4.6 mph - N/A   Overcast
4:20 PM 42.8 °F 39.3 °F 37.4 °F 81% 29.65 in 4.3 mi East 5.8 mph - N/A   Overcast
4:50 PM 42.8 °F 39.3 °F 37.4 °F 81% 29.65 in 4.3 mi East 5.8 mph - N/A   Unknown
5:20 PM 42.8 °F 40.1 °F 37.4 °F 81% 29.65 in 3.7 mi East 4.6 mph - N/A   Mostly Cloudy
5:50 PM 42 °F - 37 °F 78% 29.66 in 4 mi East 2.3 mph - -   Light Haze
5:50 PM 41.0 °F - 37.4 °F 87% 29.65 in 3.1 mi East 2.3 mph - N/A   Haze
6:20 PM 39.2 °F 35.0 °F 37.4 °F 93% 29.65 in 3.1 mi ENE 5.8 mph - N/A   Haze
6:50 PM 41.0 °F 35.8 °F 37.4 °F 87% 29.65 in 3.1 mi ENE 8.1 mph - N/A   Haze
7:20 PM 41.0 °F 35.8 °F 37.4 °F 87% 29.65 in 3.7 mi ENE 8.1 mph - N/A   Unknown
7:50 PM 39.2 °F 33.6 °F 37.4 °F 93% 29.65 in 3.1 mi ENE 8.1 mph - N/A   Haze
8:20 PM 39.2 °F 33.0 °F 37.4 °F 93% 29.65 in 3.1 mi ENE 9.2 mph - N/A   Haze
8:50 PM 38 °F - 36 °F 90% 29.66 in 3 mi ENE 10.4 mph - -   Light Haze
8:50 PM 37.4 °F 30.3 °F 35.6 °F 93% 29.65 in 3.1 mi ENE 10.4 mph - N/A   Haze
9:20 PM 39.2 °F 34.2 °F 37.4 °F 93% 29.65 in - ENE 6.9 mph - N/A   Mist
9:50 PM 39.2 °F 33.6 °F 37.4 °F 93% 29.65 in 3.1 mi ENE 8.1 mph - N/A   Mist
10:20 PM 37.4 °F 30.8 °F 35.6 °F 93% 29.65 in 3.7 mi ENE 9.2 mph - N/A   Unknown
10:50 PM 39.2 °F 33.6 °F 35.6 °F 87% 29.62 in 5.0 mi East 8.1 mph - N/A   Unknown
11:20 PM 37.4 °F 30.8 °F 33.8 °F 87% 29.65 in 6.2 mi East 9.2 mph - N/A   Unknown
11:50 PM 36 °F - 32 °F 81% 29.65 in 6 mi East 9.2 mph - -   Light Haze
11:50 PM 35.6 °F 28.6 °F 32.0 °F 87% 29.62 in 5.6 mi East 9.2 mph - N/A   Unknown